Location: Kaiser
(34.0939°N, 117.4889°W)
Time: 22:01:01
(UTC+00:00)

Meteor PRIRODA - Pass Details

Date: 29 October 2020
Orbit: 491 x 509 km, 97.6° (Epoch: 26 November)

Event Time Altitude Azimuth Distance (km) Brightness Sun altitude
Rises 13:12:23 0° 7° (N) 2,584 7.2 -12.0°
Reaches altitude 10° 13:14:28 10° 5° (N) 1,700 6.3 -11.5°
Maximum altitude 13:18:05 63° 284° (WNW) 560 3.6 -10.8°
Drops below altitude 10° 13:21:42 10° 203° (SSW) 1,698 6.2 -10.1°
Sets 13:23:47 0° 200° (SSW) 2,581 7.2 -9.6°
